STARLINK-35202, 65647

Orbit data source: Space-Track

STARLINK-35202, 65647 is a payload satellite owned by SpaceX/Seattle (US) in LEO that was launched on Thu, 18 Sep 2025 UTC via an FALCON 9 launch vehicle from the Air Force Eastern Test Range (AFETR). Payload-class satellites include a variety of spacecraft equipped with specific instruments for various scientific and technological missions. These include communications satellites like Starlink; space stations such as the ISS; scientific satellites like the Hubble; Earth observation satellites from companies like Planet Labs, Umbra, and HawkEye 360; GPS; miniature CubeSats for education and research; and military/defense satellites.

Loading next visibility...
Identifier
65647, 2025-210AB
Orbit
LEO
Country
Flag of USUS
Related business
Manufacturer
SpaceX/Seattle
Mission
Operational Commercial Communications
Bus & Motor
STARLINK V2MO, Unknown motor
Mass
575 kg wet, ~530 kg dry
Launch date (UTC)
2025-09-18 (9 months ago)
Launch vehicle
FALCON 9
Launch site
Air Force Eastern Test Range (AFETR)
Object type
Payload
Rocket body
Debris
Shape & HBR
Box + 2 Pan, 17.7 m
Radar Cross Section
36.964 m², Large (>1 m²)

Expand to show TLE details & history
Last TLE update: 9 hours ago

TLE from 9 hours ago
0 STARLINK-35202
1 65647U 25210AB  26171.45882315  .00017109  00000-0  51602-3 0  9996
2 65647  53.1585 186.3038 0000965  85.5470 274.5643 15.34419711 43515
Epoch: 2026-06-20T11:00Z
TLE epoch observation values (Epoch: 2026-06-20T11:00:42.320Z)
Latitude
0.00001°
Longitude
112.45432°
Altitude
463.493 km
Speed
7.636 km/s
True Right ascension
12h 25m 12s
True Declination
0° 00' 00"
Sunlit
Object was in daylight at epoch
Visualization orbit readout
Latitude
Unknown
Longitude
Unknown
Altitude
Unknown
Speed
Unknown
Apparent Right ascension
Unknown
Apparent Declination
Unknown
Sunlit
N/A
Visualization observer readout
Local Sidereal Time
07:15:12
Azimuth
Unknown
Elevation
Unknown
Doppler factor
Unknown
Orbital elements
Apogee altitude
463.562 km
Perigee altitude
462.242 km
Semi-major axis
6,841.039 km
Eccentricity
0.0001
Inclination
53.1585°
RAAN
186.3038°
Arg. of periapsis
85.547°
True anomaly
274.55328°
Mean anomaly
274.5643°
Eccentric anomaly
274.55879°
Mean motion
3.83584 °/min
Orbital period
93.85 mins
BSTAR
0.00051602
Loading maneuver chart data...
Computing Atmospheric mass density...
Loading historical data...
Loading historical data...
Loading historical data...
Loading historical data...
Loading historical data...
Loading historical data...
Loading historical data...

Documentation

Showing up to 5 results
|